Welcome to the New NWS' Forecast!
Most changes are behind the scenes, but click here for differences you might notice.
Latest weather observations around

Hot Springs, Memorial Field Airport (KHOT)

Using English Units (Switch to International System of Units)
Date/ Time (CST) Wind (mph) Vis. (mi) Weather Sky Cond. Temp (°F) Rel. Humidity Wind Chill (°F) Heat Index (°F) Pressure Precip. (in)
Air Dwpt 6 hour Altimeter (inHg) Sea level (inHg) 1 hr 3 hr 6 hr
Max Min
Nov 18 01:53 SW 17 10 Cloudy BKN021 OVC028 72 66     82%   73 29.69 29.67      
Nov 18 00:53 SW 11 10 Cloudy BKN022 BKN026 OVC031 72 67     84%   73 29.71 29.69      
Nov 17 23:53 SW 6 10 Cloudy BKN018 BKN024 OVC029 72 67     84%   73 29.74 29.72      
Nov 17 22:53 SSW 9 10 Cloudy BKN021 BKN044 OVC055 72 66     82%   73 29.74 29.72      
Nov 17 22:26 SSW 10 10 Cloudy BKN022 BKN040 OVC055 72 66     82%   73 29.75        
Nov 17 21:53 S 7 10 Cloudy FEW023 SCT038 OVC050 72 66     82%   73 29.76 29.74      
Nov 17 20:53 S 9 10 Mostly Cloudy FEW040 BKN050 72 66     82%   73 29.76 29.75      
Nov 17 19:53 S 9 10 Mostly Cloudy FEW037 BKN050 72 66     82%   73 29.77 29.75      
Nov 17 18:53 SSW 9 10 Mostly Cloudy SCT037 BKN048 72 66     82%   73 29.78 29.77      
Nov 17 17:53 SSW 13 10 Mostly Cloudy FEW024 FEW033 BKN050 72 66     82%   73 29.78 29.77      
Nov 17 16:53 SSW 11 10 Partly Cloudy FEW023 SCT055 72 65     79%   73 29.79 29.78      
Nov 17 15:53 SSW 9 10 Cloudy SCT024 BKN030 OVC050 72 65     79%   73 29.81 29.8      
Nov 17 15:32 S 10 10 Cloudy BKN024 OVC050 73 65     76%   74 29.82        
Nov 17 14:53 S 10 10 Cloudy SCT022 OVC046 72 65     79%   73 29.83 29.81      
Nov 17 13:53 SSW 11 10 Cloudy OVC021 72 64     76%   72 29.86 29.84      
Nov 17 12:53 SSW 13 10 Cloudy OVC018 71 64     79%   72 29.88 29.87      
Nov 17 12:06 SSW 7 10 Cloudy OVC015 69 63     81%     29.91        
Nov 17 11:53 5 10 Cloudy OVC014 68 62     81%     29.93 29.91      
Nov 17 10:53 S 7 9 Cloudy OVC012 64 60     87%     29.97 29.96      
Nov 17 09:53 SSE 7 9 Cloudy OVC010 61 58     90%     30 29.99      
Nov 17 08:53 5 9 Cloudy OVC012 60 57     90%     30.03 30.02      
Nov 17 08:41 SE 7 9 Cloudy SCT010 BKN014 OVC031 59 56     90%     30.02        
Nov 17 08:25 SE 6 9 Cloudy SCT010 OVC027 59 56     90%     30.02        
Nov 17 07:53 ESE 6 9 Cloudy BKN010 OVC033 58 55     90%     30.03 30.02      
Nov 17 06:53 E 8 10 Cloudy OVC011 56 54     93%     30.04 30.04      
Nov 17 06:33 ENE 7 10 Cloudy BKN012 OVC019 56 54     93%     30.05        
Nov 17 06:19 E 7 9 Mostly Cloudy SCT013 BKN019 BKN033 56 53     90%     30.04        
Nov 17 05:53 E 8 10 Mostly Cloudy FEW024 BKN048 BKN080 56 53     90%     30.05 30.04     0
Nov 17 05:45 E 8 10 Cloudy SCT024 SCT034 OVC049 56 53     90%     30.06        
Nov 17 05:34 ESE 8 10 Cloudy FEW013 BKN025 OVC032 56 53     90%     30.06        
Nov 17 05:08 E 9 9 Cloudy FEW026 OVC033 56 53     90%     30.05        
Nov 17 04:53 E 9 9 Cloudy BKN026 OVC033 56 53     90%     30.06 30.05 0    
Nov 17 03:53 E 6 9 Cloudy OVC026 57 54     89%     30.08 30.07      
Nov 17 02:53 E 8 10 Cloudy OVC025 57 53     87%     30.08 30.07      
Nov 17 01:53 E 7 10 Cloudy OVC027 57 53     87%     30.09 30.08      
Nov 17 00:53 E 8 10 Cloudy OVC026 57 53     87%     30.09 30.09      
Nov 16 23:53 E 6 10 Cloudy BKN026 OVC033 58 52     81%     30.1 30.09      
Nov 16 22:53 E 6 10 Cloudy OVC022 58 52     81%     30.11 30.1      
Nov 16 21:53 E 8 10 Cloudy OVC019 58 50     75%     30.12 30.11      
Nov 16 20:53 E 6 10 Cloudy BKN018 BKN028 OVC041 57 49     74%     30.13 30.12      
Nov 16 19:53 E 5 10 Cloudy OVC022 58 48     70%     30.15 30.14      
Nov 16 18:53 ESE 7 10 Cloudy OVC024 58 48     70%     30.13 30.13      
Nov 16 17:53 E 5 10 Cloudy OVC025 58 47     67%     30.13 30.12      
Nov 16 16:53 E 6 10 Cloudy OVC026 59 46     62%     30.13 30.12      
Nov 16 15:53 E 9 10 Cloudy BKN026 OVC032 60 45     57%     30.13 30.12      
Nov 16 14:53 E 6 10 Cloudy OVC026 60 43     53%     30.13 30.12      
Nov 16 13:53 ESE 7 10 Cloudy OVC028 60 41     49%     30.14 30.14      
Nov 16 12:53 E 7 10 Cloudy OVC027 59 40     49%     30.17 30.16      
Nov 16 11:53 E 8 10 Cloudy OVC027 58 40     51%     30.2 30.19      
Nov 16 11:18 E 9 10 Cloudy OVC029 57 40     53%     30.21        
Nov 16 10:53 E 10 10 Cloudy OVC030 56 40     55%     30.23 30.22      
Nov 16 09:53 E 8 10 Cloudy OVC031 55 41     59%     30.23 30.22      
Nov 16 08:53 E 9 10 Cloudy OVC030 54 40     59%     30.22 30.22      
Nov 16 07:53 E 6 10 Cloudy OVC032 54 40     59%     30.21 30.2      
Nov 16 06:53 ENE 7 10 Cloudy SCT034 OVC042 53 42     66%     30.19 30.18      
Nov 16 05:53 E 3 10 Partly Cloudy SCT044 52 43     71%     30.17 30.16      
Nov 16 04:53 E 3 10 Mostly Clear FEW050 52 44     74%     30.16 30.16      
Nov 16 03:53 E 7 10 Partly Cloudy SCT050 54 44     69%     30.16 30.15      
Nov 16 02:53 ENE 9 10 Partly Cloudy SCT050 54 49     83%     30.16 30.15      
Nov 16 01:53 ENE 6 10 Clear CLR 56 52     87%     30.15 30.14      
Nov 16 00:53 N 5 9 Mostly Cloudy BKN065 58 57     97%     30.15 30.14      
Nov 15 23:53 Calm 9 Cloudy OVC060 60 58     93%     30.15 30.14      
Nov 15 22:53 Calm 10 Cloudy OVC049 60 58     93%     30.14 30.13      
Nov 15 22:14 NNE 3 10 Mostly Cloudy SCT029 BKN050 61 59     93%     30.13        
Nov 15 21:53 NE 5 10 Cloudy BKN029 OVC050 61 59     93%     30.13 30.12      
Nov 15 21:49 NE 6 10 Cloudy SCT029 OVC049 61 59     94%     30.13        
Nov 15 21:38 NNE 5 10 Mostly Cloudy BKN029 BKN049 62 59     90%     30.13        
Nov 15 20:53 Calm 9 Cloudy OVC045 63 61     93%     30.12 30.11      
Nov 15 19:53 Calm 8 Cloudy OVC045 62 61     96%     30.11 30.1      
Nov 15 18:53 Calm 8 Cloudy OVC046 63 62     97%     30.1 30.09      
Nov 15 18:20 NNW 3 9 Cloudy FEW018 SCT028 OVC044 63 61     93%     30.08        
Nov 15 17:53 NNW 5 9 Cloudy OVC016 63 61     93%     30.08 30.07      
Nov 15 16:53 NNW 5 4 Fog/Mist OVC016 64 62     93%     30.07 30.06      
Nov 15 15:53 Calm 9 Cloudy OVC022 64 61     90%     30.04 30.03      
Nov 15 14:53 Calm 9 Cloudy OVC026 65 60     84%     30.02 30.01      
Nov 15 13:53 ENE 7 7 Cloudy OVC029 62 61     96%     30.03 30.02      
Nov 15 13:49 ENE 7 6 Fog/Mist OVC029 63 63     100%     30.03        
Nov 15 12:53 3 10 Cloudy BKN031 OVC044 67 58     73%     30.03 30.02      
Nov 15 11:53 5 10 Cloudy OVC038 67 55     66%     30.05 30.04      
Nov 15 10:53 WSW 8 10 Cloudy OVC047 67 55     66%     30.07 30.06      
Nov 15 10:07 SW 8 10 Mostly Cloudy BKN031 BKN100 65 54     68%     30.07        
Nov 15 09:53 SSW 7 10 Mostly Cloudy BKN029 BKN100 65 54     68%     30.06 30.05      
Nov 15 09:49 SSW 7 10 Mostly Cloudy BKN029 BKN100 64 54     68%     30.06        
Nov 15 08:53 S 3 10 Mostly Clear FEW100 60 50     69%     30.07 30.06      
Nov 15 07:53 SE 6 10 Cloudy FEW055 OVC095 58 49     72%     30.05 30.04      
Nov 15 06:53 E 3 10 Cloudy OVC090 58 48     70%     30.05 30.04      
Nov 15 05:53 ESE 6 10 Cloudy FEW039 OVC090 58 48     70%     30.03 30.02      
Nov 15 04:53 SSE 6 10 Cloudy OVC085 58 48     70%     30.03 30.02      
Nov 15 03:53 SE 7 10 Cloudy FEW037 OVC085 58 47     67%     30.03 30.02      
Nov 15 02:53 3 10 Mostly Cloudy BKN080 59 46     62%     30.04 30.03      
Jun 11 21:53 SE 8 10 Clear   82 72     72%   87 29.98 29.96      
Jun 10 21:53 ESE 3 10 Clear CLR 76 63     64%   76 29.95 29.93      
Jun 10 10:53 S 10 10 Clear CLR 80 62     54%   81 30 29.98      
Jun 08 18:53 NE 9 10 Clear   80 54     41%   80 29.92 29.9      
Jun 08 13:53   10 Clear CLR 83 55     38%   82 29.99 29.98      
Jun 08 07:53 Calm 10 Clear CLR 64 59     84%     30.03 30.02      
Jun 06 10:53 ENE 10 10 Mostly Clear FEW033 83 71     67%   88 29.85 29.83      
Jun 06 01:07 Calm 10 Partly Cloudy SCT016 70 69     97%     29.81        
Notice The following observation data may not be complete
Jun 05 15:38   10 Mostly Clear FEW006          %